Location: ??????
(42.0089°N, 44.3281°E)
Time: 00:30:26
(UTC+00:00)

Cosmos 2251 Rocket - Pass Details

Date: 03 June 2022
Orbit: 764 x 791 km, 74.0° (Epoch: 03 July)

Event Time Altitude Azimuth Distance (km) Brightness Sun altitude
Rises 22:36:22 0° 335° (NNW) 3,255 7.4 -21.9°
Reaches altitude 10° 22:38:47 10° 331° (NNW) 2,328 6.5 -21.7°
Maximum altitude 22:43:55 54° 256° (WSW) 945 3.7 -21.3°
Enters shadow 22:44:53 47° 218° (SW) 1,029 3.7 -21.3°
